TimeEST,TemperatureF,Dew PointF,Humidity,Sea Level PressureIn,VisibilityMPH,Wind Direction,Wind SpeedMPH,Gust SpeedMPH,PrecipitationIn,Events,Conditions,WindDirDegrees,DateUTC
12:56 AM,24.1,-2.9,31,30.43,10.0,NNW,10.4,18.4,N/A,,Clear,340,2014-01-24 05:56:00
1:56 AM,21.9,-2.9,34,30.44,10.0,NNW,11.5,19.6,N/A,,Clear,330,2014-01-24 06:56:00
2:56 AM,21.0,-2.0,36,30.46,10.0,NNW,6.9,-,N/A,,Clear,330,2014-01-24 07:56:00
3:56 AM,21.0,-0.9,38,30.47,10.0,NNW,8.1,-,N/A,,Overcast,330,2014-01-24 08:56:00
4:56 AM,21.0,-0.9,38,30.49,10.0,NNW,8.1,-,N/A,,Overcast,330,2014-01-24 09:56:00
5:56 AM,19.9,-2.9,37,30.53,10.0,North,15.0,21.9,N/A,,Overcast,350,2014-01-24 10:56:00
6:56 AM,18.0,-2.9,40,30.54,10.0,NW,11.5,18.4,N/A,,Clear,320,2014-01-24 11:56:00
7:56 AM,19.0,-2.0,40,30.56,10.0,NW,10.4,19.6,N/A,,Clear,310,2014-01-24 12:56:00
8:56 AM,21.0,-2.0,36,30.58,10.0,NNW,12.7,21.9,N/A,,Clear,340,2014-01-24 13:56:00
9:56 AM,23.0,-0.9,35,30.59,10.0,NNW,12.7,18.4,N/A,,Clear,340,2014-01-24 14:56:00
10:56 AM,24.1,-0.9,34,30.57,10.0,North,10.4,-,N/A,,Clear,350,2014-01-24 15:56:00
11:56 AM,26.1,-0.0,32,30.53,10.0,North,8.1,-,N/A,,Clear,10,2014-01-24 16:56:00
12:56 PM,27.0,-2.9,27,30.49,10.0,WNW,5.8,-,N/A,,Clear,300,2014-01-24 17:56:00
1:56 PM,27.0,-2.9,27,30.46,10.0,Variable,5.8,-,N/A,,Clear,0,2014-01-24 18:56:00
2:56 PM,27.0,-2.0,29,30.45,10.0,Variable,3.5,-,N/A,,Clear,0,2014-01-24 19:56:00
3:56 PM,28.0,-5.1,24,30.45,10.0,NW,4.6,-,N/A,,Clear,320,2014-01-24 20:56:00
4:56 PM,26.1,-5.1,26,30.44,10.0,Calm,Calm,-,N/A,,Clear,0,2014-01-24 21:56:00
5:56 PM,23.0,-0.0,37,30.42,10.0,Calm,Calm,-,N/A,,Clear,0,2014-01-24 22:56:00
6:56 PM,19.9,1.0,44,30.40,10.0,Calm,Calm,-,N/A,,Clear,0,2014-01-24 23:56:00
7:56 PM,19.9,1.0,44,30.38,10.0,SSW,3.5,-,N/A,,Clear,200,2014-01-25 00:56:00
8:56 PM,19.0,1.9,47,30.37,10.0,Calm,Calm,-,N/A,,Clear,0,2014-01-25 01:56:00
9:56 PM,19.0,-0.0,43,30.33,10.0,SSW,3.5,-,N/A,,Clear,200,2014-01-25 02:56:00
10:56 PM,18.0,1.9,50,30.31,10.0,Variable,3.5,-,N/A,,Clear,0,2014-01-25 03:56:00
11:56 PM,18.0,1.9,50,30.28,10.0,SSW,3.5,-,N/A,,Clear,200,2014-01-25 04:56:00